Vertical_Velocity
-2 0 -1 1 -10 -6 -1 -4 0 -2 -0 1 2 1 -3 -0 -3 -9 -1 -2 -2 -2 -0 -0 -1 1 -0 -2 2 -0 2 1 -1 -0 3 3 -3 -0 -0 -2 -1 1 -0 -3 -3 -1 -0 -1 3
-3 0 -1 -0 -8 -1 -4 -2 -0 -2 -3 -1 -1 -1 -1 -2 -0 -1 -1 -1 -0 -2 -1 -0 -0 -0 -1 -1 0 0 2 2 -2 -5 3 4 -1 3 -1 1 -2 -2 -2 -1 1 1 0 0 0
1 0 -2 -3 -1 -2 -3 -1 -1 -2 1 1 1 1 -1 -2 -1 -1 -4 -1 -1 -2 -0 -1 -2 -0 -1 -2 -2 0 -0 -1 -3 -4 1 3 -2 0 -2 -1 -3 -1 1 1 0 1 -1 -3 -3
-5 0 -0 -6 -1 -5 -1 -2 -1 -1 -1 3 1 -1 -1 -2 0 1 -2 -1 -1 -2 -2 -1 -2 -1 0 -1 -2 -2 -1 -2 -3 1 1 4 -2 -1 -1 0 0 2 0 1 -0 0 -2 -2 -3
-1 -1 -3 -1 -2 -2 -1 -3 3 -0 -1 -1 0 -2 -2 -1 -1 1 -2 -2 -1 -1 -0 -1 -3 -1 -1 -0 -1 0 -2 -2 -2 -6 0 -2 3 0 -1 1 1 0 -1 0 -1 -1 -1 -1 -1
-2 -0 -3 -0 -2 -2 -2 -0 3 1 -0 -2 2 -0 -2 -2 -2 1 -2 -0 1 0 -0 1 -1 -1 0 -0 -3 -1 0 2 -3 -3 -1 1 -1 -0 1 0 -0 -1 -0 -0 0 0 1 -0 -0
-4 -3 -2 -0 -2 -2 -1 2 2 1 1 -6 1 -2 -1 -2 -3 1 -3 -2 0 -2 -1 0 0 -0 0 -1 -1 -3 1 -1 -3 -2 -0 1 -2 1 -0 -0 -1 -1 -2 1 -1 -1 -1 -1 -0
-0 -4 0 -1 -1 -5 -2 -5 5 0 -2 -0 8 -3 -4 -1 -3 1 -4 -2 -1 0 1 1 -1 0 -2 -1 -1 -1 -0 -3 -1 1 -0 1 1 1 1 -2 -2 -2 -2 -0 -2 -1 -0 1 -1
3 -5 -0 -3 1 -4 -3 -0 -2 -1 0 3 -0 1 -2 -0 -1 1 -4 -2 -2 -1 1 1 -0 0 -0 -0 1 -0 -1 -1 -0 -1 0 -1 0 -0 -1 -2 -0 0 -2 -4 -3 0 0 -1 -1
-3 -2 -4 -3 -1 -1 -2 6 3 -3 -5 -1 -2 1 -1 -1 -0 0 -5 -3 -2 -1 -1 -0 -0 -0 2 -0 -2 0 -1 0 -0 -2 -1 -1 1 -1 -1 -1 -0 -2 -2 -1 -0 -1 -0 -1 1
0 -3 -2 -7 -2 6 -1 -2 4 1 -3 0 0 0 1 1 -1 -1 -2 -2 3 0 -1 0 2 0 1 1 -0 -1 -1 0 -2 -1 0 -1 -4 -4 -4 -1 -1 -1 0 1 2 1 0 2 1
-0 -1 0 -9 -2 2 -0 -0 -3 4 -13 4 -1 6 2 -3 -2 -1 -3 1 4 -0 2 1 1 0 -1 3 -2 1 -2 -2 -2 -0 -1 -1 -0 1 1 -1 -0 -0 1 1 1 1 1 -0 1
1 -2 1 -4 0 0 5 -2 -3 -5 -8 8 -3 -2 -2 -1 -3 1 2 2 0 -3 -1 0 -1 -1 -1 0 0 -1 -3 0 2 -0 -0 -1 -2 -2 -2 -1 -1 -1 0 0 -1 -2 -1 1 -0
-1 1 -4 -3 -4 1 4 -7 8 -12 2 -1 -1 -1 1 1 -2 5 -3 -1 -3 3 2 5 1 2 1 -3 -3 -4 -2 0 -1 -0 0 -0 -0 -1 -3 -2 -1 -0 2 4 2 2 1 2 3
-1 1 -2 -2 -5 -4 5 -4 -2 -7 5 -4 2 -1 0 -4 11 9 11 -2 8 6 6 0 1 4 1 1 2 2 1 0 0 1 1 2 2 3 4 2 1 11 10 5 5 7 3 1 2
-0 -2 -1 -6 1 -7 0 -9 -8 1 1 -3 -1 7 -3 0 2 0 -1 -3 1 -2 -1 5 3 2 1 -0 4 -2 -1 0 -1 -1 1 3 3 6 4 -0 -1 -0 2 -0 -2 -1 -1 -2 -1
-2 -2 0 -9 -0 -0 -3 -4 -9 6 1 -3 3 1 3 1 3 2 1 -2 -2 -1 0 -1 3 1 3 2 2 2 2 -2 1 0 -2 1 1 -0 -2 -2 -2 -0 1 2 5 2 2 1 4
-2 0 -1 -1 -6 2 1 -4 -3 2 -2 1 1 3 2 1 -1 -2 -0 -0 -0 1 -0 -1 1 4 4 6 5 4 1 -1 -0 0 -1 4 5 6 3 2 0 3 2 2 2 -0 5 -0 3
-1 1 0 -4 -5 -1 -2 -1 -4 0 -0 1 1 1 0 -1 2 2 1 0 1 1 2 -2 -2 1 1 0 0 1 -1 1 -0 1 5 2 4 4 2 1 0 4 0 0 -1 1 0 -6 2
1 1 -4 -6 -1 1 -0 -3 -2 -0 -0 -1 -3 1 1 2 4 2 1 2 1 1 1 1 1 -0 1 1 5 3 3 2 6 6 2 4 4 4 4 3 -0 1 -1 3 4 6 1 -6 9
-1 -1 -1 -2 -2 -2 -0 -5 1 -1 1 3 4 1 2 1 0 0 2 -0 4 1 1 1 -0 -1 -2 -2 -0 1 4 5 4 3 1 2 0 -0 0 0 -0 2 2 -1 3 1 4 2 -1
3 -2 0 0 -2 -4 -4 -7 -1 -0 1 0 2 3 1 -0 0 1 2 1 1 -0 2 1 1 2 3 5 3 2 2 2 2 1 1 4 3 4 4 2 2 0 3 -2 -1 6 -1 11 -8
-13 -0 -1 -0 -0 -2 -2 -3 -11 -0 0 -1 -0 2 1 0 -0 -1 -1 1 -0 2 -1 -1 2 1 1 -1 -1 1 1 2 3 3 4 3 3 4 5 4 4 5 6 1 4 4 8 6 7
-2 -2 -3 -1 -1 -2 -5 -5 -7 -3 -8 0 1 4 0 -1 -1 -1 0 1 -1 -1 -2 -2 -1 -2 -2 -1 -0 -2 -1 -1 -1 -3 -3 -2 0 2 2 2 2 1 0 1 2 4 5 7 12
-3 -4 -2 -3 -3 -7 -0 -1 -13 -2 -1 -6 -3 0 1 -1 0 -0 -1 -1 -1 0 -2 -1 -0 -2 0 0 -0 -2 -3 -3 -2 -2 -3 -4 -4 -4 -4 -2 -4 -2 1 2 4 2 2 2 6
-2 -7 -6 -4 -2 -4 -1 -3 -16 -2 1 -1 1 -1 1 2 0 -2 -0 1 1 -0 2 1 -2 -3 -3 -2 -2 0 1 1 1 1 1 1 0 -1 -1 -2 -2 -4 -3 -3 -0 0 2 3 4
-3 -1 -6 -2 -1 -2 -4 -7 -4 -1 2 4 2 2 1 -1 -1 1 4 2 -2 -2 -2 -1 -0 1 0 -0 0 -1 0 -0 -1 1 1 -0 1 -1 -1 1 -3 -1 -1 1 1 -2 -4 0 -2
-7 -6 -8 -3 -1 -1 -3 -1 -5 -0 1 2 2 0 -0 2 2 0 -0 1 -0 1 1 1 -1 -1 -1 0 -1 -2 -2 -0 -0 -1 -2 -1 1 -0 -1 -2 -1 -2 -2 -2 -1 -1 1 1 -0
-1 0 -1 -6 -4 -3 -1 -8 -4 -3 -2 -2 -1 -2 -3 0 1 1 3 2 1 -0 1 -1 -1 -1 -1 -3 -3 -4 -3 -1 -1 -1 -0 0 -1 -1 -2 -1 -2 -3 -2 -1 -1 -0 -3 -1 -2
-1 -3 -3 -5 -2 -1 -3 -12 0 0 -1 -2 -4 -1 3 1 2 5 1 1 -1 -0 -0 0 0 -1 -2 -0 -1 -3 -2 -2 -3 -3 -3 -2 -3 -2 -2 -3 -4 -3 -1 -1 -1 -2 2 0 -1
Height
1531 1528 1525 1524 1534 1536 1537 1529 1516 1513 1508 1504 1503 1503 1502 1502 1504 1516 1502 1502 1503 1503 1504 1506 1508 1510 1510 1512 1513 1513 1513 1512 1511 1513 1514 1514 1514 1513 1512 1512 1512 1512 1511 1509 1510 1511 1511 1511 1512
1529 1527 1525 1523 1539 1546 1540 1521 1517 1509 1506 1505 1505 1504 1503 1504 1503 1502 1501 1501 1502 1503 1504 1505 1507 1509 1510 1511 1512 1512 1512 1511 1511 1512 1514 1514 1513 1513 1511 1511 1510 1510 1509 1508 1508 1509 1510 1509 1511
1529 1527 1526 1529 1540 1543 1537 1517 1514 1508 1506 1506 1505 1504 1504 1504 1502 1501 1500 1500 1501 1502 1503 1504 1506 1508 1509 1510 1511 1511 1510 1510 1511 1513 1514 1514 1513 1512 1510 1509 1509 1508 1508 1508 1508 1508 1508 1508 1509
1528 1528 1529 1535 1534 1526 1521 1515 1510 1506 1505 1504 1503 1504 1505 1504 1502 1501 1500 1500 1501 1501 1502 1504 1505 1506 1507 1508 1509 1510 1510 1510 1511 1513 1514 1513 1513 1511 1509 1509 1508 1508 1508 1508 1507 1507 1507 1507 1506
1529 1528 1538 1537 1532 1522 1516 1511 1507 1505 1502 1501 1503 1504 1504 1503 1501 1501 1500 1500 1500 1501 1501 1502 1504 1505 1506 1507 1508 1508 1509 1509 1509 1511 1512 1512 1511 1510 1508 1508 1508 1508 1508 1507 1507 1506 1506 1505 1505
1529 1530 1545 1544 1532 1521 1515 1509 1504 1499 1499 1501 1502 1501 1502 1501 1501 1500 1500 1501 1501 1501 1501 1502 1502 1504 1504 1505 1506 1507 1507 1507 1507 1509 1509 1510 1510 1509 1509 1508 1508 1507 1507 1507 1506 1505 1505 1504 1504
1530 1535 1541 1536 1531 1524 1514 1509 1504 1500 1501 1502 1499 1501 1500 1500 1499 1500 1501 1501 1501 1500 1500 1501 1501 1502 1503 1503 1504 1505 1506 1506 1506 1507 1507 1508 1507 1507 1507 1507 1507 1506 1506 1506 1505 1504 1503 1502 1502
1529 1531 1535 1534 1530 1525 1513 1509 1505 1501 1501 1503 1499 1498 1498 1497 1498 1499 1499 1500 1500 1500 1500 1500 1500 1501 1501 1502 1502 1504 1504 1504 1505 1505 1505 1506 1506 1506 1506 1506 1505 1505 1504 1504 1503 1502 1501 1500 1500
1529 1537 1541 1532 1525 1518 1512 1511 1506 1506 1505 1500 1497 1496 1498 1496 1497 1497 1498 1499 1498 1498 1499 1499 1499 1499 1499 1500 1501 1502 1503 1503 1503 1504 1504 1504 1504 1504 1504 1504 1503 1503 1503 1501 1500 1499 1499 1498 1498
1527 1536 1530 1520 1519 1517 1514 1511 1507 1504 1500 1499 1497 1496 1496 1495 1496 1494 1495 1496 1495 1496 1497 1497 1498 1499 1499 1499 1500 1500 1501 1502 1502 1502 1502 1502 1502 1502 1502 1502 1502 1501 1500 1498 1497 1496 1496 1495 1495
1524 1527 1519 1515 1516 1515 1513 1508 1507 1505 1501 1498 1497 1496 1495 1494 1494 1494 1494 1494 1494 1496 1496 1496 1496 1497 1497 1497 1498 1499 1500 1500 1500 1500 1501 1501 1501 1501 1500 1500 1499 1498 1497 1496 1495 1494 1493 1492 1492
1523 1518 1516 1512 1512 1512 1510 1507 1502 1500 1498 1498 1496 1495 1493 1493 1493 1491 1491 1492 1493 1494 1494 1494 1494 1495 1495 1496 1497 1497 1498 1498 1497 1498 1499 1498 1498 1498 1498 1498 1497 1496 1494 1494 1493 1492 1491 1490 1489
1519 1514 1513 1510 1509 1508 1506 1503 1501 1495 1496 1494 1493 1491 1491 1490 1490 1490 1490 1491 1491 1491 1492 1492 1492 1492 1493 1493 1494 1495 1495 1495 1496 1496 1496 1497 1497 1496 1496 1495 1494 1493 1492 1491 1491 1490 1488 1487 1486
1512 1512 1510 1508 1505 1504 1503 1499 1497 1491 1491 1490 1491 1489 1488 1488 1488 1488 1487 1487 1487 1488 1488 1489 1489 1489 1490 1489 1490 1491 1492 1493 1493 1494 1494 1494 1494 1494 1493 1492 1490 1490 1489 1489 1488 1486 1484 1483 1483
1510 1513 1508 1502 1499 1501 1500 1499 1492 1486 1488 1486 1487 1487 1487 1485 1486 1485 1485 1485 1486 1487 1487 1486 1487 1487 1486 1486 1486 1487 1490 1490 1491 1492 1492 1492 1491 1490 1489 1488 1487 1487 1487 1487 1485 1483 1482 1480 1479
1510 1512 1516 1498 1495 1494 1499 1506 1485 1485 1483 1480 1482 1484 1483 1483 1483 1483 1483 1483 1483 1483 1483 1483 1483 1483 1484 1484 1485 1486 1487 1487 1488 1489 1490 1489 1489 1488 1488 1486 1485 1484 1483 1482 1479 1478 1476 1474 1472
1516 1523 1518 1506 1491 1493 1496 1498 1480 1482 1482 1481 1482 1483 1482 1482 1482 1481 1481 1480 1480 1479 1478 1478 1479 1480 1481 1482 1482 1483 1484 1485 1485 1486 1486 1486 1486 1485 1484 1483 1481 1480 1479 1477 1475 1473 1472 1469 1466
1520 1520 1513 1511 1492 1493 1495 1492 1481 1480 1480 1480 1482 1483 1482 1482 1482 1482 1481 1479 1477 1475 1473 1473 1474 1476 1478 1480 1480 1480 1481 1482 1483 1482 1482 1482 1482 1481 1479 1478 1476 1475 1473 1471 1469 1467 1466 1464 1462
1508 1512 1512 1501 1489 1490 1491 1489 1483 1479 1480 1480 1482 1483 1483 1483 1483 1481 1480 1478 1476 1474 1472 1472 1473 1473 1473 1475 1477 1478 1478 1479 1479 1479 1479 1479 1478 1476 1474 1472 1470 1468 1466 1463 1461 1460 1459 1456 1455
1508 1513 1511 1497 1487 1486 1485 1487 1482 1480 1480 1480 1481 1482 1482 1483 1482 1481 1481 1480 1477 1475 1474 1473 1472 1471 1471 1471 1473 1475 1476 1476 1477 1477 1476 1475 1473 1472 1469 1467 1464 1462 1459 1457 1455 1453 1451 1448 1448
1508 1512 1507 1502 1493 1488 1487 1492 1481 1481 1480 1482 1482 1481 1482 1482 1482 1483 1482 1481 1480 1477 1475 1474 1473 1472 1471 1471 1471 1472 1473 1473 1474 1473 1472 1471 1469 1466 1464 1461 1458 1456 1453 1450 1449 1447 1445 1442 1441
1509 1497 1497 1494 1501 1508 1491 1512 1488 1485 1483 1482 1481 1480 1482 1483 1485 1484 1484 1482 1481 1479 1478 1477 1476 1474 1473 1472 1471 1471 1471 1470 1470 1468 1467 1465 1463 1461 1458 1455 1453 1450 1447 1444 1442 1441 1438 1435 1431
1497 1490 1492 1494 1502 1502 1498 1506 1490 1484 1486 1483 1480 1480 1482 1484 1485 1485 1485 1484 1483 1482 1480 1480 1480 1477 1475 1474 1472 1471 1470 1469 1468 1467 1464 1462 1460 1458 1455 1451 1448 1445 1442 1439 1436 1435 1432 1429 1425
1487 1492 1500 1505 1508 1516 1498 1499 1489 1485 1473 1478 1479 1479 1481 1484 1486 1486 1486 1485 1484 1483 1483 1482 1480 1479 1478 1476 1474 1472 1470 1469 1467 1465 1463 1461 1459 1456 1452 1449 1445 1442 1438 1435 1432 1429 1426 1422 1419
1489 1502 1519 1520 1521 1514 1491 1499 1477 1468 1464 1463 1472 1477 1480 1484 1484 1485 1486 1486 1485 1484 1483 1482 1481 1479 1479 1477 1475 1473 1472 1470 1468 1465 1463 1459 1456 1452 1449 1445 1442 1438 1434 1431 1428 1424 1420 1417 1413
1492 1495 1512 1513 1517 1501 1487 1495 1471 1459 1459 1464 1469 1474 1479 1482 1483 1485 1486 1485 1484 1484 1483 1482 1481 1480 1479 1478 1476 1474 1472 1469 1467 1464 1461 1458 1454 1450 1446 1442 1438 1434 1430 1426 1422 1417 1414 1410 1406
1487 1495 1487 1496 1498 1503 1491 1476 1460 1461 1461 1465 1470 1473 1477 1480 1482 1484 1484 1484 1484 1484 1483 1483 1482 1480 1479 1477 1475 1472 1470 1467 1465 1462 1459 1455 1451 1447 1442 1438 1433 1429 1424 1420 1415 1411 1406 1402 1398
1478 1481 1496 1501 1501 1503 1494 1483 1475 1469 1469 1468 1471 1473 1476 1479 1480 1482 1483 1484 1484 1483 1482 1482 1481 1480 1478 1475 1473 1470 1468 1465 1462 1459 1455 1452 1448 1443 1438 1433 1428 1423 1418 1413 1409 1404 1399 1395 1390
1483 1486 1485 1491 1496 1501 1504 1488 1464 1465 1464 1464 1468 1471 1474 1476 1479 1481 1483 1482 1482 1482 1481 1481 1480 1478 1475 1473 1470 1468 1465 1462 1459 1455 1451 1446 1441 1436 1431 1426 1421 1417 1412 1408 1403 1398 1393 1388 1383
1473 1477 1480 1493 1493 1502 1503 1487 1460 1460 1461 1464 1466 1468 1473 1476 1479 1480 1480 1480 1480 1480 1479 1478 1476 1475 1473 1470 1468 1464 1461 1458 1453 1449 1445 1440 1436 1432 1426 1421 1416 1411 1407 1402 1398 1392 1388 1383 1378